owner,sensor,date,latitude,longitude,vertical_datum,wind_speed,wind_to_direction,wind_speed_of_gust,qcFlag 
LOOP,urn:ioos:station:wmo:lopl1:1,2016-06-01T00:49:00Z,28.8850,-90.0250,10.0,6.1,-9999.0,7.1,'11111222,99999999,11111222' 
LOOP,urn:ioos:station:wmo:lopl1:1,2016-06-01T01:49:00Z,28.8850,-90.0250,10.0,4.7,-9999.0,5.8,'11111222,99999999,11111222' 
LOOP,urn:ioos:station:wmo:lopl1:1,2016-06-01T02:49:00Z,28.8850,-90.0250,10.0,3.6,179.0,4.5,'11111222,11111222,11111222' 
LOOP,urn:ioos:station:wmo:lopl1:1,2016-06-01T03:49:00Z,28.8850,-90.0250,10.0,3.4,-9999.0,4.7,'11111222,99999999,11111222' 
LOOP,urn:ioos:station:wmo:lopl1:1,2016-06-01T05:04:00Z,28.8850,-90.0250,10.0,4.1,-9999.0,4.8,'11111222,99999999,11111222' 
LOOP,urn:ioos:station:wmo:lopl1:1,2016-06-01T06:04:00Z,28.8850,-90.0250,10.0,4.5,169.0,5.8,'11111222,11111222,11111222' 
LOOP,urn:ioos:station:wmo:lopl1:1,2016-06-01T07:04:00Z,28.8850,-90.0250,10.0,4.2,-9999.0,5.2,'11111222,99999999,11111222' 
LOOP,urn:ioos:station:wmo:lopl1:1,2016-06-01T08:04:00Z,28.8850,-90.0250,10.0,3.5,-9999.0,4.6,'11111222,99999999,11111222' 
LOOP,urn:ioos:station:wmo:lopl1:1,2016-06-01T09:04:00Z,28.8850,-90.0250,10.0,3.6,177.0,4.8,'11111222,11111222,11111222' 
LOOP,urn:ioos:station:wmo:lopl1:1,2016-06-01T10:04:00Z,28.8850,-90.0250,10.0,3.9,151.0,4.6,'11111222,11111222,11111222' 
LOOP,urn:ioos:station:wmo:lopl1:1,2016-06-01T11:04:00Z,28.8850,-90.0250,10.0,4.9,159.0,6.0,'11111222,11111222,11111222' 
LOOP,urn:ioos:station:wmo:lopl1:1,2016-06-01T12:04:00Z,28.8850,-90.0250,10.0,4.5,157.0,5.3,'11111222,11111222,11111222' 
LOOP,urn:ioos:station:wmo:lopl1:1,2016-06-01T13:04:00Z,28.8850,-90.0250,10.0,5.5,140.0,6.1,'11111222,11111222,11111222' 
LOOP,urn:ioos:station:wmo:lopl1:1,2016-06-01T14:04:00Z,28.8850,-90.0250,10.0,5.9,137.0,7.0,'11111222,11111222,11111222' 
LOOP,urn:ioos:station:wmo:lopl1:1,2016-06-01T15:04:00Z,28.8850,-90.0250,10.0,5.4,132.0,6.4,'11111222,11111222,11111222' 
LOOP,urn:ioos:station:wmo:lopl1:1,2016-06-01T16:04:00Z,28.8850,-90.0250,10.0,5.5,131.0,6.5,'11111222,11111222,11111222' 
LOOP,urn:ioos:station:wmo:lopl1:1,2016-06-01T17:04:00Z,28.8850,-90.0250,10.0,4.9,154.0,7.2,'11111222,11111222,11111222' 
LOOP,urn:ioos:station:wmo:lopl1:1,2016-06-01T18:04:00Z,28.8850,-90.0250,10.0,5.2,147.0,6.0,'11111222,11111222,11111222' 
LOOP,urn:ioos:station:wmo:lopl1:1,2016-06-01T19:04:00Z,28.8850,-90.0250,10.0,3.1,136.0,3.6,'11111222,11111222,11111222' 
LOOP,urn:ioos:station:wmo:lopl1:1,2016-06-01T20:04:00Z,28.8850,-90.0250,10.0,3.9,148.0,5.1,'11111222,11111222,11111222' 
LOOP,urn:ioos:station:wmo:lopl1:1,2016-06-01T21:04:00Z,28.8850,-90.0250,10.0,3.6,149.0,4.9,'11111222,11111222,11111222' 
LOOP,urn:ioos:station:wmo:lopl1:1,2016-06-01T22:04:00Z,28.8850,-90.0250,10.0,5.4,150.0,5.9,'11111222,11111222,11111222' 
LOOP,urn:ioos:station:wmo:lopl1:1,2016-06-01T23:04:00Z,28.8850,-90.0250,10.0,5.1,166.0,5.8,'11111222,11111222,11111222' 
LOOP,urn:ioos:station:wmo:lopl1:1,2016-06-02T00:04:00Z,28.8850,-90.0250,10.0,4.3,167.0,5.0,'11111222,11111222,11111222' 
LOOP,urn:ioos:station:wmo:lopl1:1,2016-06-02T01:04:00Z,28.8850,-90.0250,10.0,4.4,157.0,5.4,'11111222,11111222,11111222' 
LOOP,urn:ioos:station:wmo:lopl1:1,2016-06-02T02:04:00Z,28.8850,-90.0250,10.0,5.2,144.0,5.9,'11111222,11111222,11111222' 
LOOP,urn:ioos:station:wmo:lopl1:1,2016-06-02T03:04:00Z,28.8850,-90.0250,10.0,5.5,149.0,6.6,'11111222,11111222,11111222' 
LOOP,urn:ioos:station:wmo:lopl1:1,2016-06-02T04:04:00Z,28.8850,-90.0250,10.0,6.3,154.0,7.1,'11111222,11111222,11111222' 
LOOP,urn:ioos:station:wmo:lopl1:1,2016-06-02T05:09:00Z,28.8850,-90.0250,10.0,5.6,165.0,6.5,'11111222,11111222,11111222' 
LOOP,urn:ioos:station:wmo:lopl1:1,2016-06-02T06:09:00Z,28.8850,-90.0250,10.0,5.7,159.0,6.4,'11111222,11111222,11111222' 
LOOP,urn:ioos:station:wmo:lopl1:1,2016-06-02T07:09:00Z,28.8850,-90.0250,10.0,5.9,150.0,6.9,'11111222,11111222,11111222' 
LOOP,urn:ioos:station:wmo:lopl1:1,2016-06-02T08:09:00Z,28.8850,-90.0250,10.0,5.9,154.0,6.5,'11111222,11111222,11111222' 
LOOP,urn:ioos:station:wmo:lopl1:1,2016-06-02T09:09:00Z,28.8850,-90.0250,10.0,5.4,138.0,6.8,'11111222,11111222,11111222' 
LOOP,urn:ioos:station:wmo:lopl1:1,2016-06-02T10:09:00Z,28.8850,-90.0250,10.0,6.1,150.0,6.8,'11111222,11111222,11111222' 
LOOP,urn:ioos:station:wmo:lopl1:1,2016-06-02T11:09:00Z,28.8850,-90.0250,10.0,6.4,146.0,6.8,'11111222,11111222,11111222' 
LOOP,urn:ioos:station:wmo:lopl1:1,2016-06-02T12:09:00Z,28.8850,-90.0250,10.0,5.9,153.0,6.7,'11111222,11111222,11111222' 
LOOP,urn:ioos:station:wmo:lopl1:1,2016-06-02T13:09:00Z,28.8850,-90.0250,10.0,6.2,145.0,7.1,'11111222,11111222,11111222' 
LOOP,urn:ioos:station:wmo:lopl1:1,2016-06-02T14:09:00Z,28.8850,-90.0250,10.0,6.6,136.0,7.6,'11111222,11111222,11111222' 
LOOP,urn:ioos:station:wmo:lopl1:1,2016-06-02T15:09:00Z,28.8850,-90.0250,10.0,7.0,133.0,7.9,'11111222,11111222,11111222' 
LOOP,urn:ioos:station:wmo:lopl1:1,2016-06-02T16:09:00Z,28.8850,-90.0250,10.0,7.1,142.0,7.9,'11111222,11111222,11111222' 
LOOP,urn:ioos:station:wmo:lopl1:1,2016-06-02T17:09:00Z,28.8850,-90.0250,10.0,7.5,133.0,8.2,'11111222,11111222,11111222' 
LOOP,urn:ioos:station:wmo:lopl1:1,2016-06-02T18:09:00Z,28.8850,-90.0250,10.0,7.6,138.0,8.5,'11111222,11111222,11111222' 
LOOP,urn:ioos:station:wmo:lopl1:1,2016-06-02T19:19:00Z,28.8850,-90.0250,10.0,8.3,144.0,9.3,'11111222,11111222,11111222' 
LOOP,urn:ioos:station:wmo:lopl1:1,2016-06-02T20:20:00Z,28.8850,-90.0250,10.0,7.3,148.0,7.3,'11111222,11111222,11111222' 
LOOP,urn:ioos:station:wmo:lopl1:1,2016-06-02T21:25:00Z,28.8850,-90.0250,10.0,7.9,146.0,9.0,'11111222,11111222,11111222' 
LOOP,urn:ioos:station:wmo:lopl1:1,2016-06-02T22:25:00Z,28.8850,-90.0250,10.0,6.4,158.0,7.3,'11111222,11111222,11111222' 
LOOP,urn:ioos:station:wmo:lopl1:1,2016-06-02T23:25:00Z,28.8850,-90.0250,10.0,6.3,145.0,6.9,'11111222,11111222,11111222' 
LOOP,urn:ioos:station:wmo:lopl1:1,2016-06-03T00:25:00Z,28.8850,-90.0250,10.0,6.6,154.0,7.5,'11111222,11111222,11111222' 
LOOP,urn:ioos:station:wmo:lopl1:1,2016-06-03T01:25:00Z,28.8850,-90.0250,10.0,7.0,155.0,7.6,'11111222,11111222,11111222' 
LOOP,urn:ioos:station:wmo:lopl1:1,2016-06-03T02:25:00Z,28.8850,-90.0250,10.0,6.6,147.0,7.2,'11111222,11111222,11111222' 
LOOP,urn:ioos:station:wmo:lopl1:1,2016-06-03T03:25:00Z,28.8850,-90.0250,10.0,6.4,166.0,7.9,'11111222,11111222,11111222' 
LOOP,urn:ioos:station:wmo:lopl1:1,2016-06-03T04:25:00Z,28.8850,-90.0250,10.0,7.7,144.0,8.3,'11111222,11111222,11111222' 
LOOP,urn:ioos:station:wmo:lopl1:1,2016-06-03T05:25:00Z,28.8850,-90.0250,10.0,7.5,146.0,8.4,'11111222,11111222,11111222' 
LOOP,urn:ioos:station:wmo:lopl1:1,2016-06-03T06:25:00Z,28.8850,-90.0250,10.0,7.6,140.0,8.4,'11111222,11111222,11111222' 
LOOP,urn:ioos:station:wmo:lopl1:1,2016-06-03T07:25:00Z,28.8850,-90.0250,10.0,7.9,149.0,8.9,'11111222,11111222,11111222' 
LOOP,urn:ioos:station:wmo:lopl1:1,2016-06-03T08:25:00Z,28.8850,-90.0250,10.0,7.2,153.0,7.8,'11111222,11111222,11111222' 
LOOP,urn:ioos:station:wmo:lopl1:1,2016-06-03T09:25:00Z,28.8850,-90.0250,10.0,7.9,149.0,8.7,'11111222,11111222,11111222' 
LOOP,urn:ioos:station:wmo:lopl1:1,2016-06-03T10:25:00Z,28.8850,-90.0250,10.0,8.8,143.0,9.5,'11111222,11111222,11111222' 
LOOP,urn:ioos:station:wmo:lopl1:1,2016-06-03T11:25:00Z,28.8850,-90.0250,10.0,7.8,142.0,9.1,'11111222,11111222,11111222' 
LOOP,urn:ioos:station:wmo:lopl1:1,2016-06-03T12:25:00Z,28.8850,-90.0250,10.0,8.6,140.0,9.6,'11111222,11111222,11111222' 
LOOP,urn:ioos:station:wmo:lopl1:1,2016-06-03T13:25:00Z,28.8850,-90.0250,10.0,8.8,151.0,9.5,'11111222,11111222,11111222' 
LOOP,urn:ioos:station:wmo:lopl1:1,2016-06-03T14:25:00Z,28.8850,-90.0250,10.0,7.5,146.0,8.1,'11111222,11111222,11111222' 
LOOP,urn:ioos:station:wmo:lopl1:1,2016-06-03T15:25:00Z,28.8850,-90.0250,10.0,7.0,143.0,7.7,'11111222,11111222,11111222' 
LOOP,urn:ioos:station:wmo:lopl1:1,2016-06-03T16:25:00Z,28.8850,-90.0250,10.0,7.3,136.0,8.0,'11111222,11111222,11111222' 
LOOP,urn:ioos:station:wmo:lopl1:1,2016-06-03T17:25:00Z,28.8850,-90.0250,10.0,6.4,144.0,7.8,'11111222,11111222,11111222' 
LOOP,urn:ioos:station:wmo:lopl1:1,2016-06-03T18:25:00Z,28.8850,-90.0250,10.0,6.5,143.0,7.3,'11111222,11111222,11111222' 
LOOP,urn:ioos:station:wmo:lopl1:1,2016-06-03T19:25:00Z,28.8850,-90.0250,10.0,7.5,127.0,8.6,'11111222,11111222,11111222' 
LOOP,urn:ioos:station:wmo:lopl1:1,2016-06-03T20:25:00Z,28.8850,-90.0250,10.0,8.7,131.0,8.7,'11111222,11111222,11111222' 
LOOP,urn:ioos:station:wmo:lopl1:1,2016-06-03T21:25:00Z,28.8850,-90.0250,10.0,10.5,136.0,11.4,'11111222,11111222,11111222' 
LOOP,urn:ioos:station:wmo:lopl1:1,2016-06-03T22:40:00Z,28.8850,-90.0250,10.0,10.1,162.0,11.4,'11111222,11111222,11111222' 
LOOP,urn:ioos:station:wmo:lopl1:1,2016-06-03T23:40:00Z,28.8850,-90.0250,10.0,6.4,-9999.0,8.2,'11111222,99999999,11111222' 
LOOP,urn:ioos:station:wmo:lopl1:1,2016-06-04T00:40:00Z,28.8850,-90.0250,10.0,0.8,179.0,1.8,'11111222,11111222,11111222' 
LOOP,urn:ioos:station:wmo:lopl1:1,2016-06-04T01:40:00Z,28.8850,-90.0250,10.0,0.4,153.0,1.0,'11111222,11111222,11111222' 
LOOP,urn:ioos:station:wmo:lopl1:1,2016-06-04T02:40:00Z,28.8850,-90.0250,10.0,1.9,123.0,2.5,'11111222,11111222,11111222' 
LOOP,urn:ioos:station:wmo:lopl1:1,2016-06-04T03:50:00Z,28.8850,-90.0250,10.0,2.6,141.0,3.1,'11111222,11111222,11111222' 
LOOP,urn:ioos:station:wmo:lopl1:1,2016-06-04T04:50:00Z,28.8850,-90.0250,10.0,5.8,163.0,7.3,'11111222,11111222,11111222' 
LOOP,urn:ioos:station:wmo:lopl1:1,2016-06-04T05:50:00Z,28.8850,-90.0250,10.0,5.5,159.0,6.5,'11111222,11111222,11111222' 
LOOP,urn:ioos:station:wmo:lopl1:1,2016-06-04T06:50:00Z,28.8850,-90.0250,10.0,6.6,145.0,8.0,'11111222,11111222,11111222' 
LOOP,urn:ioos:station:wmo:lopl1:1,2016-06-04T07:50:00Z,28.8850,-90.0250,10.0,7.8,163.0,8.7,'11111222,11111222,11111222' 
LOOP,urn:ioos:station:wmo:lopl1:1,2016-06-04T08:50:00Z,28.8850,-90.0250,10.0,8.1,160.0,9.3,'11111222,11111222,11111222' 
LOOP,urn:ioos:station:wmo:lopl1:1,2016-06-04T09:50:00Z,28.8850,-90.0250,10.0,8.3,167.0,9.1,'11111222,11111222,11111222' 
LOOP,urn:ioos:station:wmo:lopl1:1,2016-06-04T10:50:00Z,28.8850,-90.0250,10.0,8.6,-9999.0,9.9,'11111222,99999999,11111222' 
LOOP,urn:ioos:station:wmo:lopl1:1,2016-06-04T11:50:00Z,28.8850,-90.0250,10.0,7.0,-9999.0,8.2,'11111222,99999999,11111222' 
LOOP,urn:ioos:station:wmo:lopl1:1,2016-06-04T12:50:00Z,28.8850,-90.0250,10.0,5.2,166.0,6.5,'11111222,11111222,11111222' 
LOOP,urn:ioos:station:wmo:lopl1:1,2016-06-04T13:50:00Z,28.8850,-90.0250,10.0,9.6,172.0,11.2,'11111222,11111222,11111222' 
LOOP,urn:ioos:station:wmo:lopl1:1,2016-06-04T14:50:00Z,28.8850,-90.0250,10.0,7.7,166.0,8.5,'11111222,11111222,11111222' 
LOOP,urn:ioos:station:wmo:lopl1:1,2016-06-04T15:50:00Z,28.8850,-90.0250,10.0,4.5,127.0,5.1,'11111222,11111222,11111222' 
LOOP,urn:ioos:station:wmo:lopl1:1,2016-06-04T16:50:00Z,28.8850,-90.0250,10.0,5.2,112.0,5.8,'11111222,11111222,11111222' 
LOOP,urn:ioos:station:wmo:lopl1:1,2016-06-04T17:50:00Z,28.8850,-90.0250,10.0,7.6,123.0,8.5,'11111222,11111222,11111222' 
LOOP,urn:ioos:station:wmo:lopl1:1,2016-06-04T18:55:00Z,28.8850,-90.0250,10.0,6.9,160.0,8.2,'11111222,11111222,11111222' 
LOOP,urn:ioos:station:wmo:lopl1:1,2016-06-04T19:55:00Z,28.8850,-90.0250,10.0,4.5,174.0,6.3,'11111222,11111222,11111222' 
LOOP,urn:ioos:station:wmo:lopl1:1,2016-06-04T20:55:00Z,28.8850,-90.0250,10.0,2.9,149.0,3.9,'11111222,11111222,11111222' 
LOOP,urn:ioos:station:wmo:lopl1:1,2016-06-04T21:55:00Z,28.8850,-90.0250,10.0,5.3,140.0,5.8,'11111222,11111222,11111222' 
LOOP,urn:ioos:station:wmo:lopl1:1,2016-06-04T22:55:00Z,28.8850,-90.0250,10.0,7.3,158.0,8.3,'11111222,11111222,11111222' 
LOOP,urn:ioos:station:wmo:lopl1:1,2016-06-04T23:55:00Z,28.8850,-90.0250,10.0,7.6,166.0,8.7,'11111222,11111222,11111222' 
LOOP,urn:ioos:station:wmo:lopl1:1,2016-06-05T00:55:00Z,28.8850,-90.0250,10.0,9.1,167.0,10.4,'11111222,11111222,11111222' 
LOOP,urn:ioos:station:wmo:lopl1:1,2016-06-05T01:55:00Z,28.8850,-90.0250,10.0,8.1,326.0,11.5,'11111222,11111222,11111222' 
LOOP,urn:ioos:station:wmo:lopl1:1,2016-06-05T02:55:00Z,28.8850,-90.0250,10.0,2.6,322.0,3.6,'11111222,11111222,11111222' 
LOOP,urn:ioos:station:wmo:lopl1:1,2016-06-05T03:55:00Z,28.8850,-90.0250,10.0,4.4,82.0,5.3,'11111222,11111222,11111222' 
LOOP,urn:ioos:station:wmo:lopl1:1,2016-06-05T04:55:00Z,28.8850,-90.0250,10.0,6.9,121.0,8.0,'11111222,11111222,11111222' 
LOOP,urn:ioos:station:wmo:lopl1:1,2016-06-05T05:55:00Z,28.8850,-90.0250,10.0,8.1,121.0,9.1,'11111222,11111222,11111222' 
LOOP,urn:ioos:station:wmo:lopl1:1,2016-06-05T07:05:00Z,28.8850,-90.0250,10.0,11.5,175.0,14.4,'11111222,11111222,11111222' 
LOOP,urn:ioos:station:wmo:lopl1:1,2016-06-05T08:05:00Z,28.8850,-90.0250,10.0,11.5,147.0,12.5,'11111222,11111222,11111222' 
LOOP,urn:ioos:station:wmo:lopl1:1,2016-06-05T09:05:00Z,28.8850,-90.0250,10.0,9.6,151.0,10.6,'11111222,11111222,11111222' 
LOOP,urn:ioos:station:wmo:lopl1:1,2016-06-05T10:05:00Z,28.8850,-90.0250,10.0,7.1,156.0,8.2,'11111222,11111222,11111222' 
LOOP,urn:ioos:station:wmo:lopl1:1,2016-06-05T11:05:00Z,28.8850,-90.0250,10.0,5.8,144.0,6.7,'11111222,11111222,11111222' 
LOOP,urn:ioos:station:wmo:lopl1:1,2016-06-05T12:05:00Z,28.8850,-90.0250,10.0,5.0,143.0,6.2,'11111222,11111222,11111222' 
LOOP,urn:ioos:station:wmo:lopl1:1,2016-06-05T13:05:00Z,28.8850,-90.0250,10.0,3.8,136.0,4.4,'11111222,11111222,11111222' 
LOOP,urn:ioos:station:wmo:lopl1:1,2016-06-05T14:05:00Z,28.8850,-90.0250,10.0,4.1,-9999.0,4.7,'11111222,99999999,11111222' 
LOOP,urn:ioos:station:wmo:lopl1:1,2016-06-05T15:05:00Z,28.8850,-90.0250,10.0,5.1,149.0,5.8,'11111222,11111222,11111222' 
LOOP,urn:ioos:station:wmo:lopl1:1,2016-06-05T16:10:00Z,28.8850,-90.0250,10.0,4.9,113.0,5.6,'11111222,11111222,11111222' 
LOOP,urn:ioos:station:wmo:lopl1:1,2016-06-05T17:10:00Z,28.8850,-90.0250,10.0,4.7,118.0,5.3,'11111222,11111222,11111222' 
LOOP,urn:ioos:station:wmo:lopl1:1,2016-06-05T18:10:00Z,28.8850,-90.0250,10.0,6.0,92.0,6.8,'11111222,11111222,11111222' 
LOOP,urn:ioos:station:wmo:lopl1:1,2016-06-05T19:10:00Z,28.8850,-90.0250,10.0,5.7,99.0,6.3,'11111222,11111222,11111222' 
LOOP,urn:ioos:station:wmo:lopl1:1,2016-06-05T20:10:00Z,28.8850,-90.0250,10.0,4.6,83.0,5.2,'11111222,11111222,11111222' 
LOOP,urn:ioos:station:wmo:lopl1:1,2016-06-05T21:10:00Z,28.8850,-90.0250,10.0,5.5,110.0,6.2,'11111222,11111222,11111222' 
LOOP,urn:ioos:station:wmo:lopl1:1,2016-06-05T22:10:00Z,28.8850,-90.0250,10.0,5.6,89.0,6.4,'11111222,11111222,11111222' 
LOOP,urn:ioos:station:wmo:lopl1:1,2016-06-05T23:10:00Z,28.8850,-90.0250,10.0,5.8,90.0,7.0,'11111222,11111222,11111222' 
LOOP,urn:ioos:station:wmo:lopl1:1,2016-06-06T00:10:00Z,28.8850,-90.0250,10.0,6.7,89.0,7.5,'11111222,11111222,11111222' 
LOOP,urn:ioos:station:wmo:lopl1:1,2016-06-06T01:10:00Z,28.8850,-90.0250,10.0,5.9,83.0,6.7,'11111222,11111222,11111222' 
LOOP,urn:ioos:station:wmo:lopl1:1,2016-06-06T02:10:00Z,28.8850,-90.0250,10.0,5.2,77.0,6.2,'11111222,11111222,11111222' 
LOOP,urn:ioos:station:wmo:lopl1:1,2016-06-06T03:10:00Z,28.8850,-90.0250,10.0,5.7,71.0,6.3,'11111222,11111222,11111222' 
LOOP,urn:ioos:station:wmo:lopl1:1,2016-06-06T04:11:00Z,28.8850,-90.0250,10.0,6.7,69.0,7.3,'11111222,11111222,11111222' 
LOOP,urn:ioos:station:wmo:lopl1:1,2016-06-06T05:11:00Z,28.8850,-90.0250,10.0,6.0,77.0,7.3,'11111222,11111222,11111222' 
LOOP,urn:ioos:station:wmo:lopl1:1,2016-06-06T06:11:00Z,28.8850,-90.0250,10.0,5.4,82.0,6.2,'11111222,11111222,11111222' 
LOOP,urn:ioos:station:wmo:lopl1:1,2016-06-06T07:11:00Z,28.8850,-90.0250,10.0,5.2,81.0,5.8,'11111222,11111222,11111222' 
LOOP,urn:ioos:station:wmo:lopl1:1,2016-06-06T08:11:00Z,28.8850,-90.0250,10.0,5.5,65.0,6.2,'11111222,11111222,11111222' 
LOOP,urn:ioos:station:wmo:lopl1:1,2016-06-06T09:11:00Z,28.8850,-90.0250,10.0,4.8,64.0,5.5,'11111222,11111222,11111222' 
LOOP,urn:ioos:station:wmo:lopl1:1,2016-06-06T10:11:00Z,28.8850,-90.0250,10.0,4.3,46.0,5.5,'11111222,11111222,11111222' 
LOOP,urn:ioos:station:wmo:lopl1:1,2016-06-06T11:11:00Z,28.8850,-90.0250,10.0,5.1,26.0,6.1,'11111222,11111222,11111222' 
LOOP,urn:ioos:station:wmo:lopl1:1,2016-06-06T12:11:00Z,28.8850,-90.0250,10.0,5.1,49.0,6.4,'11111222,11111222,11111222' 
LOOP,urn:ioos:station:wmo:lopl1:1,2016-06-06T13:16:00Z,28.8850,-90.0250,10.0,8.1,24.0,8.9,'11111222,11111222,11111222' 
LOOP,urn:ioos:station:wmo:lopl1:1,2016-06-06T14:16:00Z,28.8850,-90.0250,10.0,8.4,18.0,9.4,'11111222,11111222,11111222' 
LOOP,urn:ioos:station:wmo:lopl1:1,2016-06-06T15:16:00Z,28.8850,-90.0250,10.0,9.1,14.0,10.6,'11111222,11111222,11111222' 
LOOP,urn:ioos:station:wmo:lopl1:1,2016-06-06T16:16:00Z,28.8850,-90.0250,10.0,10.8,17.0,12.3,'11111222,11111222,11111222' 
LOOP,urn:ioos:station:wmo:lopl1:1,2016-06-06T17:16:00Z,28.8850,-90.0250,10.0,9.9,23.0,11.4,'11111222,11111222,11111222' 
LOOP,urn:ioos:station:wmo:lopl1:1,2016-06-06T18:16:00Z,28.8850,-90.0250,10.0,8.5,27.0,10.3,'11111222,11111222,11111222' 
LOOP,urn:ioos:station:wmo:lopl1:1,2016-06-06T19:26:00Z,28.8850,-90.0250,10.0,8.1,24.0,9.2,'11111222,11111222,11111222' 
LOOP,urn:ioos:station:wmo:lopl1:1,2016-06-06T20:26:00Z,28.8850,-90.0250,10.0,8.2,28.0,9.4,'11111222,11111222,11111222' 
LOOP,urn:ioos:station:wmo:lopl1:1,2016-06-06T21:26:00Z,28.8850,-90.0250,10.0,7.4,30.0,8.6,'11111222,11111222,11111222' 
LOOP,urn:ioos:station:wmo:lopl1:1,2016-06-06T22:26:00Z,28.8850,-90.0250,10.0,7.4,24.0,8.4,'11111222,11111222,11111222' 
LOOP,urn:ioos:station:wmo:lopl1:1,2016-06-06T23:26:00Z,28.8850,-90.0250,10.0,6.6,36.0,7.8,'11111222,11111222,11111222' 
LOOP,urn:ioos:station:wmo:lopl1:1,2016-06-07T00:26:00Z,28.8850,-90.0250,10.0,4.6,29.0,5.6,'11111222,11111222,11111222' 
LOOP,urn:ioos:station:wmo:lopl1:1,2016-06-07T01:26:00Z,28.8850,-90.0250,10.0,3.0,32.0,4.2,'11111222,11111222,11111222' 
LOOP,urn:ioos:station:wmo:lopl1:1,2016-06-07T02:36:00Z,28.8850,-90.0250,10.0,1.9,27.0,2.4,'11111222,11111222,11111222' 
LOOP,urn:ioos:station:wmo:lopl1:1,2016-06-07T03:36:00Z,28.8850,-90.0250,10.0,0.9,350.0,1.3,'11111222,11111222,11111222' 
LOOP,urn:ioos:station:wmo:lopl1:1,2016-06-07T04:36:00Z,28.8850,-90.0250,10.0,1.6,301.0,2.0,'11111222,11111222,11111222' 
LOOP,urn:ioos:station:wmo:lopl1:1,2016-06-07T05:36:00Z,28.8850,-90.0250,10.0,2.5,286.0,3.1,'11111222,11111222,11111222' 
LOOP,urn:ioos:station:wmo:lopl1:1,2016-06-07T06:36:00Z,28.8850,-90.0250,10.0,4.6,272.0,5.3,'11111222,11111222,11111222' 
LOOP,urn:ioos:station:wmo:lopl1:1,2016-06-07T07:36:00Z,28.8850,-90.0250,10.0,4.9,304.0,5.7,'11111222,11111222,11111222' 
LOOP,urn:ioos:station:wmo:lopl1:1,2016-06-07T08:51:00Z,28.8850,-90.0250,10.0,3.5,330.0,5.0,'11111222,11111222,11111222' 
LOOP,urn:ioos:station:wmo:lopl1:1,2016-06-07T09:51:00Z,28.8850,-90.0250,10.0,5.1,330.0,7.0,'11111222,11111222,11111222' 
LOOP,urn:ioos:station:wmo:lopl1:1,2016-06-07T10:51:00Z,28.8850,-90.0250,10.0,3.7,324.0,5.3,'11111222,11111222,11111222' 
LOOP,urn:ioos:station:wmo:lopl1:1,2016-06-07T11:51:00Z,28.8850,-90.0250,10.0,5.7,343.0,7.2,'11111222,11111222,11111222' 
LOOP,urn:ioos:station:wmo:lopl1:1,2016-06-07T12:01:00Z,28.8850,-90.0250,10.0,6.6,351.0,8.0,'11111222,11111222,11111222' 
LOOP,urn:ioos:station:wmo:lopl1:1,2016-06-07T13:01:00Z,28.8850,-90.0250,10.0,4.9,9.0,6.0,'11111222,11111222,11111222' 
LOOP,urn:ioos:station:wmo:lopl1:1,2016-06-07T14:06:00Z,28.8850,-90.0250,10.0,4.8,24.0,5.8,'11111222,11111222,11111222' 
LOOP,urn:ioos:station:wmo:lopl1:1,2016-06-07T15:06:00Z,28.8850,-90.0250,10.0,3.7,16.0,4.9,'11111222,11111222,11111222' 
LOOP,urn:ioos:station:wmo:lopl1:1,2016-06-07T16:06:00Z,28.8850,-90.0250,10.0,2.4,36.0,3.3,'11111222,11111222,11111222' 
LOOP,urn:ioos:station:wmo:lopl1:1,2016-06-07T17:06:00Z,28.8850,-90.0250,10.0,3.9,26.0,4.8,'11111222,11111222,11111222' 
LOOP,urn:ioos:station:wmo:lopl1:1,2016-06-07T18:06:00Z,28.8850,-90.0250,10.0,3.6,18.0,4.4,'11111222,11111222,11111222' 
LOOP,urn:ioos:station:wmo:lopl1:1,2016-06-07T19:06:00Z,28.8850,-90.0250,10.0,3.2,21.0,4.2,'11111222,11111222,11111222' 
LOOP,urn:ioos:station:wmo:lopl1:1,2016-06-07T20:06:00Z,28.8850,-90.0250,10.0,2.9,29.0,3.9,'11111222,11111222,11111222' 
LOOP,urn:ioos:station:wmo:lopl1:1,2016-06-07T21:06:00Z,28.8850,-90.0250,10.0,2.8,27.0,3.6,'11111222,11111222,11111222' 
LOOP,urn:ioos:station:wmo:lopl1:1,2016-06-07T22:06:00Z,28.8850,-90.0250,10.0,2.1,68.0,2.8,'11111222,11111222,11111222' 
LOOP,urn:ioos:station:wmo:lopl1:1,2016-06-07T23:06:00Z,28.8850,-90.0250,10.0,1.3,61.0,2.1,'11111222,11111222,11111222' 
LOOP,urn:ioos:station:wmo:lopl1:1,2016-06-08T00:06:00Z,28.8850,-90.0250,10.0,1.1,76.0,1.5,'11111222,11111222,11111222' 
LOOP,urn:ioos:station:wmo:lopl1:1,2016-06-08T01:06:00Z,28.8850,-90.0250,10.0,1.6,33.0,2.1,'11111222,11111222,11111222' 
LOOP,urn:ioos:station:wmo:lopl1:1,2016-06-08T02:06:00Z,28.8850,-90.0250,10.0,0.9,35.0,1.3,'11111222,11111222,11111222' 
LOOP,urn:ioos:station:wmo:lopl1:1,2016-06-08T03:06:00Z,28.8850,-90.0250,10.0,2.0,79.0,2.6,'11111222,11111222,11111222' 
LOOP,urn:ioos:station:wmo:lopl1:1,2016-06-08T04:16:00Z,28.8850,-90.0250,10.0,0.6,-9999.0,1.7,'11111222,99999999,11111222' 
LOOP,urn:ioos:station:wmo:lopl1:1,2016-06-08T05:16:00Z,28.8850,-90.0250,10.0,1.8,146.0,2.3,'11111222,11111222,11111222' 
LOOP,urn:ioos:station:wmo:lopl1:1,2016-06-08T06:16:00Z,28.8850,-90.0250,10.0,1.2,138.0,1.5,'11111222,11111222,11111222' 
LOOP,urn:ioos:station:wmo:lopl1:1,2016-06-08T07:16:00Z,28.8850,-90.0250,10.0,1.2,-9999.0,1.6,'11111222,99999999,11111222' 
LOOP,urn:ioos:station:wmo:lopl1:1,2016-06-08T08:16:00Z,28.8850,-90.0250,10.0,0.1,359.0,0.3,'11111222,11111222,11111222' 
LOOP,urn:ioos:station:wmo:lopl1:1,2016-06-08T09:16:00Z,28.8850,-90.0250,10.0,0.4,164.0,2.1,'11111222,11111222,11111222' 
LOOP,urn:ioos:station:wmo:lopl1:1,2016-06-08T10:31:00Z,28.8850,-90.0250,10.0,1.8,338.0,2.5,'11111222,11111222,11111222' 
LOOP,urn:ioos:station:wmo:lopl1:1,2016-06-08T11:31:00Z,28.8850,-90.0250,10.0,2.7,354.0,3.4,'11111222,11111222,11111222' 
LOOP,urn:ioos:station:wmo:lopl1:1,2016-06-08T12:31:00Z,28.8850,-90.0250,10.0,4.0,15.0,4.8,'11111222,11111222,11111222' 
LOOP,urn:ioos:station:wmo:lopl1:1,2016-06-08T13:31:00Z,28.8850,-90.0250,10.0,6.1,23.0,7.1,'11111222,11111222,11111222' 
LOOP,urn:ioos:station:wmo:lopl1:1,2016-06-08T14:31:00Z,28.8850,-90.0250,10.0,6.0,26.0,7.1,'11111222,11111222,11111222' 
LOOP,urn:ioos:station:wmo:lopl1:1,2016-06-08T15:31:00Z,28.8850,-90.0250,10.0,5.5,44.0,7.9,'11111222,11111222,11111222' 
LOOP,urn:ioos:station:wmo:lopl1:1,2016-06-08T16:31:00Z,28.8850,-90.0250,10.0,6.6,33.0,9.8,'11111222,11111222,11111222' 
LOOP,urn:ioos:station:wmo:lopl1:1,2016-06-08T17:31:00Z,28.8850,-90.0250,10.0,7.2,66.0,9.8,'11111222,11111222,11111222' 
LOOP,urn:ioos:station:wmo:lopl1:1,2016-06-08T18:31:00Z,28.8850,-90.0250,10.0,7.2,67.0,8.2,'11111222,11111222,11111222' 
LOOP,urn:ioos:station:wmo:lopl1:1,2016-06-08T19:31:00Z,28.8850,-90.0250,10.0,6.9,74.0,7.7,'11111222,11111222,11111222' 
LOOP,urn:ioos:station:wmo:lopl1:1,2016-06-08T20:31:00Z,28.8850,-90.0250,10.0,6.2,85.0,7.1,'11111222,11111222,11111222' 
LOOP,urn:ioos:station:wmo:lopl1:1,2016-06-08T21:31:00Z,28.8850,-90.0250,10.0,6.3,82.0,7.3,'11111222,11111222,11111222' 
LOOP,urn:ioos:station:wmo:lopl1:1,2016-06-08T22:31:00Z,28.8850,-90.0250,10.0,6.3,80.0,7.3,'11111222,11111222,11111222' 
LOOP,urn:ioos:station:wmo:lopl1:1,2016-06-08T23:31:00Z,28.8850,-90.0250,10.0,7.0,93.0,7.5,'11111222,11111222,11111222' 
LOOP,urn:ioos:station:wmo:lopl1:1,2016-06-09T00:36:00Z,28.8850,-90.0250,10.0,6.1,92.0,6.7,'11111222,11111222,11111222' 
LOOP,urn:ioos:station:wmo:lopl1:1,2016-06-09T01:36:00Z,28.8850,-90.0250,10.0,5.4,105.0,6.1,'11111222,11111222,11111222' 
LOOP,urn:ioos:station:wmo:lopl1:1,2016-06-09T02:36:00Z,28.8850,-90.0250,10.0,5.2,121.0,5.7,'11111222,11111222,11111222' 
LOOP,urn:ioos:station:wmo:lopl1:1,2016-06-09T03:36:00Z,28.8850,-90.0250,10.0,5.7,135.0,6.1,'11111222,11111222,11111222' 
LOOP,urn:ioos:station:wmo:lopl1:1,2016-06-09T04:36:00Z,28.8850,-90.0250,10.0,5.2,144.0,5.5,'11111222,11111222,11111222' 
LOOP,urn:ioos:station:wmo:lopl1:1,2016-06-09T05:36:00Z,28.8850,-90.0250,10.0,4.1,143.0,4.6,'11111222,11111222,11111222' 
LOOP,urn:ioos:station:wmo:lopl1:1,2016-06-09T06:36:00Z,28.8850,-90.0250,10.0,3.4,132.0,3.8,'11111222,11111222,11111222' 